Location: Unspecified
(0.0000°N, 0.0000°E)
Time: 23:00:51
(UTC+00:00)

BlueWalker 3 - Pass Details

Date: 15 April 2026
Orbit: 449 x 457 km, 53.2° (Epoch: 17 April)

Event Time Altitude Azimuth Distance (km) Brightness Sun altitude
Rises 19:39:57 0° 339° (NNW) 2,452 5.9 -24.6°
Reaches altitude 10° 19:42:11 10° 348° (NNW) 1,583 4.7 -25.1°
Enters shadow 19:42:43 13° 352° (N) 1,390 4.4 -25.3°
